STARLINK-34680, 65356

Orbit data source: Space-Track

STARLINK-34680, 65356 is a payload satellite owned by SpaceX/Seattle (US) in LEO that was launched on Thu, 28 Aug 2025 UTC via an FALCON 9 launch vehicle from the Air Force Eastern Test Range (AFETR). Payload-class satellites include a variety of spacecraft equipped with specific instruments for various scientific and technological missions. These include communications satellites like Starlink; space stations such as the ISS; scientific satellites like the Hubble; Earth observation satellites from companies like Planet Labs, Umbra, and HawkEye 360; GPS; miniature CubeSats for education and research; and military/defense satellites.

Loading next visibility...
Identifier
65356, 2025-190F
Orbit
LEO
Country
Flag of USUS
Related business
Manufacturer
SpaceX/Seattle
Mission
Operational Commercial Communications
Bus & Motor
STARLINK V2MO, Unknown motor
Mass
575 kg wet, ~530 kg dry
Launch date (UTC)
2025-08-28 (7 months ago)
Launch vehicle
FALCON 9
Launch site
Air Force Eastern Test Range (AFETR)
Object type
Payload
Rocket body
Debris
Shape & HBR
Box + 2 Pan, 17.7 m
Radar Cross Section
36.964 m², Large (>1 m²)

Expand to show TLE details & history
Last TLE update: 8 hours ago

TLE from 8 hours ago
0 STARLINK-34680
1 65356U 25190F   26094.24708890  .00040780  00000-0  13813-2 0  9998
2 65356  53.1601  49.7853 0001195  85.3493 274.7644 15.30203508 33194
Epoch: 2026-04-04T05:55Z
TLE epoch observation values (Epoch: 2026-04-04T05:55:48.480Z)
Latitude
-0.00007°
Longitude
128.26365°
Altitude
476.036 km
Speed
7.629 km/s
True Right ascension
03h 19m 08s
True Declination
0° 00' 00"
Sunlit
Object was in daylight at epoch
Visualization orbit readout
Latitude
Unknown
Longitude
Unknown
Altitude
Unknown
Speed
Unknown
Apparent Right ascension
Unknown
Apparent Declination
Unknown
Sunlit
N/A
Visualization observer readout
Local Sidereal Time
19:26:00
Azimuth
Unknown
Elevation
Unknown
Doppler factor
Unknown
Orbital elements
Apogee altitude
476.28 km
Perigee altitude
474.642 km
Semi-major axis
6,853.598 km
Eccentricity
0.00012
Inclination
53.1601°
RAAN
49.7853°
Arg. of periapsis
85.3493°
True anomaly
274.75075°
Mean anomaly
274.7644°
Eccentric anomaly
274.75758°
Mean motion
3.8253 °/min
Orbital period
94.11 mins
BSTAR
0.0013813
Loading maneuver chart data...
Computing Atmospheric mass density...
Loading historical data...
Loading historical data...
Loading historical data...
Loading historical data...
Loading historical data...
Loading historical data...
Loading historical data...

Documentation

Showing up to 5 results
|